| time (UTC) | temp C | wind direction | speed KPH | gust KPH | rain 1hr cm | rain 24hr cm | rain mn cm | humidity % | barometer mb |
| 20260505223423 | 27 | 231 | 4.8 | 17.7 | 0.00 | 0.00 | 0.00 | 35 | 955.5 |
| 20260505222655 | 27 | 236 | 3.2 | 17.7 | 0.00 | 0.00 | 0.00 | 36 | 955.4 |
| 20260505222413 | 27 | 98 | 4.8 | 16.1 | 0.00 | 0.00 | 0.00 | 35 | 955.5 |
| 20260505221643 | 27 | 211 | 8.0 | 22.5 | 0.00 | 0.00 | 0.00 | 33 | 955.4 |
| 20260505221136 | 27 | 231 | 8.0 | 22.5 | 0.00 | 0.00 | 0.00 | 32 | 955.5 |
| 20260505220632 | 27 | 213 | 8.0 | 16.1 | 0.00 | 0.00 | 0.00 | 34 | 955.6 |
| 20260505220125 | 27 | 166 | 9.7 | 24.1 | 0.00 | 0.00 | 0.00 | 34 | 955.5 |
| 20260505215619 | 28 | 197 | 9.7 | 24.1 | 0.00 | 0.00 | 0.00 | 32 | 955.6 |
| 20260505215114 | 28 | 149 | 8.0 | 20.9 | 0.00 | 0.00 | 0.00 | 32 | 955.6 |
| 20260505214608 | 28 | 142 | 11.3 | 25.7 | 0.00 | 0.00 | 0.00 | 32 | 955.5 |
| 20260505214101 | 28 | 170 | 9.7 | 25.7 | 0.00 | 0.00 | 0.00 | 31 | 955.6 |
| 20260505213556 | 28 | 227 | 8.0 | 20.9 | 0.00 | 0.00 | 0.00 | 33 | 955.5 |
| 20260505213313 | 28 | 260 | 9.7 | 20.9 | 0.00 | 0.00 | 0.00 | 32 | 955.4 |
| 20260505212544 | 28 | 262 | 8.0 | 19.3 | 0.00 | 0.00 | 0.00 | 35 | 955.3 |
| 20260505212038 | 28 | 208 | 8.0 | 16.1 | 0.00 | 0.00 | 0.00 | 34 | 955.3 |
| 20260505211531 | 28 | 216 | 6.4 | 19.3 | 0.00 | 0.00 | 0.00 | 35 | 955.3 |
| 20260505211028 | 28 | 235 | 6.4 | 22.5 | 0.00 | 0.00 | 0.00 | 35 | 955.4 |
| 20260505210528 | 28 | 228 | 9.7 | 22.5 | 0.00 | 0.00 | 0.00 | 36 | 955.4 |
| 20260505210026 | 28 | 195 | 11.3 | 22.5 | 0.00 | 0.00 | 0.00 | 35 | 955.4 |
| 20260505205528 | 28 | 233 | 9.7 | 24.1 | 0.00 | 0.00 | 0.00 | 32 | 955.4 |
| 20260505205027 | 28 | 217 | 9.7 | 24.1 | 0.00 | 0.00 | 0.00 | 33 | 955.3 |
| 20260505204526 | 28 | 249 | 11.3 | 27.4 | 0.00 | 0.00 | 0.00 | 34 | 955.3 |
| 20260505204022 | 28 | 230 | 11.3 | 27.4 | 0.00 | 0.00 | 0.00 | 33 | 955.4 |
| 20260505203522 | 28 | 259 | 9.7 | 22.5 | 0.00 | 0.00 | 0.00 | 34 | 955.5 |
| 20260505203025 | 28 | 240 | 11.3 | 22.5 | 0.00 | 0.00 | 0.00 | 33 | 955.6 |
| 20260505202525 | 28 | 252 | 11.3 | 32.2 | 0.00 | 0.00 | 0.00 | 36 | 955.6 |
| 20260505202022 | 28 | 200 | 9.7 | 32.2 | 0.00 | 0.00 | 0.00 | 34 | 955.5 |
| 20260505201523 | 28 | 211 | 11.3 | 32.2 | 0.00 | 0.00 | 0.00 | 35 | 955.6 |
| 20260505201024 | 27 | 228 | 12.9 | 32.2 | 0.00 | 0.00 | 0.00 | 34 | 955.7 |
| 20260505200747 | 28 | 233 | 12.9 | 30.6 | 0.00 | 0.00 | 0.00 | 34 | 955.5 |
| 20260505200022 | 28 | 221 | 11.3 | 30.6 | 0.00 | 0.00 | 0.00 | 33 | 955.7 |
| 20260505195522 | 28 | 205 | 9.7 | 25.7 | 0.00 | 0.00 | 0.00 | 34 | 955.8 |
| 20260505195026 | 28 | 229 | 11.3 | 25.7 | 0.00 | 0.00 | 0.00 | 33 | 955.9 |
| 20260505195004 | 28 | 224 | 11.3 | 24.1 | 0.00 | 0.00 | 0.00 | 37 | 955.9 |
| 20260505194016 | 27 | 235 | 11.3 | 25.7 | 0.00 | 0.00 | 0.00 | 34 | 956.1 |
| 20260505193743 | 28 | 212 | 9.7 | 25.7 | 0.00 | 0.00 | 0.00 | 33 | 955.9 |
| 20260505193019 | 27 | 178 | 11.3 | 33.8 | 0.00 | 0.00 | 0.00 | 35 | 955.9 |
| 20260505192737 | 27 | 142 | 14.5 | 33.8 | 0.00 | 0.00 | 0.00 | 34 | 955.9 |
| 20260505192012 | 28 | 201 | 12.9 | 30.6 | 0.00 | 0.00 | 0.00 | 34 | 956.1 |
| 20260505191512 | 28 | 238 | 9.7 | 20.9 | 0.00 | 0.00 | 0.00 | 34 | 956.1 |
| 20260505191012 | 28 | 224 | 9.7 | 19.3 | 0.00 | 0.00 | 0.00 | 38 | 956.1 |
| 20260505190734 | 27 | 131 | 12.9 | 22.5 | 0.00 | 0.00 | 0.00 | 34 | 956.1 |
| 20260505190015 | 28 | 172 | 11.3 | 25.7 | 0.00 | 0.00 | 0.00 | 36 | 956.3 |
| 20260505185736 | 28 | 239 | 8.0 | 25.7 | 0.00 | 0.00 | 0.00 | 34 | 956.3 |
| 20260505185010 | 28 | 219 | 8.0 | 19.3 | 0.00 | 0.00 | 0.00 | 36 | 956.3 |
| 20260505184508 | 27 | 198 | 11.3 | 20.9 | 0.00 | 0.00 | 0.00 | 36 | 956.4 |
| 20260505184007 | 27 | 262 | 12.9 | 24.1 | 0.00 | 0.00 | 0.00 | 34 | 956.6 |
| 20260505183509 | 27 | 237 | 12.9 | 24.1 | 0.00 | 0.00 | 0.00 | 36 | 956.6 |
| 20260505183009 | 27 | 238 | 11.3 | 24.1 | 0.00 | 0.00 | 0.00 | 34 | 956.7 |
| 20260505182506 | 27 | 215 | 11.3 | 27.4 | 0.00 | 0.00 | 0.00 | 36 | 956.7 |
| 20260505182006 | 27 | 207 | 12.9 | 29.0 | 0.00 | 0.00 | 0.00 | 36 | 956.7 |
| 20260505181505 | 27 | 220 | 11.3 | 29.0 | 0.00 | 0.00 | 0.00 | 37 | 956.9 |
| 20260505181007 | 27 | 195 | 8.0 | 22.5 | 0.00 | 0.00 | 0.00 | 35 | 956.9 |
| 20260505180507 | 27 | 283 | 8.0 | 20.9 | 0.00 | 0.00 | 0.00 | 36 | 956.9 |
| 20260505180451 | 27 | 176 | 11.3 | 22.5 | 0.00 | 0.00 | 0.00 | 37 | 957.1 |
| 20260505175506 | 27 | 245 | 11.3 | 24.1 | 0.00 | 0.00 | 0.00 | 36 | 957.0 |
| 20260505175006 | 27 | 208 | 9.7 | 24.1 | 0.00 | 0.00 | 0.00 | 37 | 957.1 |
| 20260505174508 | 27 | 232 | 11.3 | 24.1 | 0.00 | 0.00 | 0.00 | 36 | 957.0 |
| 20260505174003 | 27 | 216 | 11.3 | 25.7 | 0.00 | 0.00 | 0.00 | 37 | 957.1 |
| 20260505173502 | 27 | 218 | 14.5 | 25.7 | 0.00 | 0.00 | 0.00 | 40 | 957.1 |
| 20260505173002 | 27 | 218 | 12.9 | 24.1 | 0.00 | 0.00 | 0.00 | 38 | 957.2 |
| 20260505172502 | 26 | 141 | 12.9 | 33.8 | 0.00 | 0.00 | 0.00 | 36 | 957.1 |
| 20260505172003 | 26 | 230 | 12.9 | 33.8 | 0.00 | 0.00 | 0.00 | 37 | 957.3 |
| 20260505171502 | 26 | 140 | 14.5 | 30.6 | 0.00 | 0.00 | 0.00 | 38 | 957.3 |
| 20260505171223 | 26 | 212 | 14.5 | 30.6 | 0.00 | 0.00 | 0.00 | 37 | 957.3 |
| 20260505170501 | 26 | 174 | 11.3 | 30.6 | 0.00 | 0.00 | 0.00 | 37 | 957.4 |
| 20260505170221 | 27 | 206 | 11.3 | 27.4 | 0.00 | 0.00 | 0.00 | 37 | 957.5 |
| 20260505165457 | 26 | 210 | 12.9 | 27.4 | 0.00 | 0.00 | 0.00 | 38 | 957.5 |
| 20260505164957 | 26 | 163 | 12.9 | 27.4 | 0.00 | 0.00 | 0.00 | 39 | 957.6 |
| 20260505164722 | 26 | 256 | 12.9 | 27.4 | 0.00 | 0.00 | 0.00 | 39 | 957.8 |
| 20260505163958 | 27 | 245 | 11.3 | 25.7 | 0.00 | 0.00 | 0.00 | 43 | 958.0 |
| 20260505163720 | 26 | 176 | 14.5 | 27.4 | 0.00 | 0.00 | 0.00 | 41 | 958.0 |
| 20260505162959 | 26 | 205 | 14.5 | 27.4 | 0.00 | 0.00 | 0.00 | 41 | 958.1 |
| 20260505162458 | 26 | 203 | 12.9 | 29.0 | 0.00 | 0.00 | 0.00 | 42 | 958.4 |
| 20260505161959 | 26 | 261 | 12.9 | 29.0 | 0.00 | 0.00 | 0.00 | 42 | 958.3 |
| 20260505161459 | 26 | 173 | 11.3 | 29.0 | 0.00 | 0.00 | 0.00 | 41 | 958.4 |
| 20260505160952 | 26 | 227 | 12.9 | 29.0 | 0.00 | 0.00 | 0.00 | 43 | 958.5 |
| 20260505160717 | 26 | 207 | 11.3 | 29.0 | 0.00 | 0.00 | 0.00 | 42 | 958.4 |
| 20260505152952 | 26 | 180 | 8.0 | 16.1 | 0.00 | 0.00 | 0.00 | 45 | 958.5 |
| 20260505152452 | 25 | 238 | 8.0 | 19.3 | 0.00 | 0.00 | 0.00 | 46 | 958.5 |
| 20260505151952 | 25 | 202 | 9.7 | 22.5 | 0.00 | 0.00 | 0.00 | 46 | 958.6 |
| 20260505151447 | 25 | 208 | 9.7 | 22.5 | 0.00 | 0.00 | 0.00 | 45 | 958.7 |
| 20260505150946 | 25 | 185 | 9.7 | 22.5 | 0.00 | 0.00 | 0.00 | 46 | 958.7 |
| 20260505150443 | 25 | 127 | 11.3 | 22.5 | 0.00 | 0.00 | 0.00 | 44 | 958.7 |
| 20260505150157 | 25 | 217 | 9.7 | 25.7 | 0.00 | 0.00 | 0.00 | 45 | 958.8 |
| 20260505140433 | 23 | 125 | 0.0 | 4.8 | 0.00 | 0.00 | 0.00 | 54 | 959.1 |
| 20260505124307 | 18 | 218 | 3.2 | 6.4 | 0.00 | 0.00 | 0.00 | 67 | 959.5 |
| 20260505123800 | 17 | 174 | 3.2 | 6.4 | 0.00 | 0.00 | 0.00 | 68 | 959.5 |
| 20260505123254 | 17 | 223 | 1.6 | 6.4 | 0.00 | 0.00 | 0.00 | 69 | 959.6 |
| 20260505122749 | 17 | 174 | 1.6 | 4.8 | 0.00 | 0.00 | 0.00 | 69 | 959.6 |
| 20260505122242 | 17 | 206 | 1.6 | 6.4 | 0.00 | 0.00 | 0.00 | 71 | 959.5 |
| 20260505121736 | 16 | 243 | 1.6 | 6.4 | 0.00 | 0.00 | 0.00 | 72 | 959.6 |
| 20260505121237 | 16 | 231 | 1.6 | 4.8 | 0.00 | 0.00 | 0.00 | 73 | 959.6 |
| 20260505120724 | 16 | 168 | 0.0 | 3.2 | 0.00 | 0.00 | 0.00 | 75 | 959.6 |
| 20260505120218 | 15 | 221 | 0.0 | 1.6 | 0.00 | 0.00 | 0.00 | 78 | 959.4 |
| 20260505115711 | 15 | 219 | 0.0 | 1.6 | 0.00 | 0.00 | 0.00 | 80 | 959.4 |
| 20260505115435 | 14 | 219 | 0.0 | 1.6 | 0.00 | 0.00 | 0.00 | 80 | 959.4 |
| 20260505114701 | 13 | 214 | 0.0 | 0.0 | 0.00 | 0.00 | 0.00 | 77 | 959.4 |
| 20260505114154 | 13 | 214 | 0.0 | 0.0 | 0.00 | 0.00 | 0.00 | 74 | 959.4 |
| 20260505113649 | 13 | 214 | 0.0 | 0.0 | 0.00 | 0.00 | 0.00 | 73 | 959.3 |
| 20260505113142 | 13 | 214 | 0.0 | 0.0 | 0.00 | 0.00 | 0.00 | 72 | 959.3 |
| 20260505112637 | 12 | 214 | 0.0 | 0.0 | 0.00 | 0.00 | 0.00 | 73 | 959.3 |
| 20260505112131 | 12 | 214 | 0.0 | 0.0 | 0.00 | 0.00 | 0.00 | 73 | 959.3 |
| 20260505111624 | 12 | 214 | 0.0 | 0.0 | 0.00 | 0.00 | 0.00 | 73 | 959.2 |
| 20260505111118 | 12 | 214 | 0.0 | 0.0 | 0.00 | 0.00 | 0.00 | 72 | 959.1 |
| 20260505110612 | 12 | 214 | 0.0 | 0.0 | 0.00 | 0.00 | 0.00 | 72 | 959.0 |
| 20260505110106 | 11 | 216 | 0.0 | 0.0 | 0.00 | 0.00 | 0.00 | 73 | 959.1 |
| 20260505102020 | 9 | 216 | 0.0 | 0.0 | 0.00 | 0.00 | 0.00 | 75 | 959.0 |
| 20260505101512 | 9 | 216 | 0.0 | 0.0 | 0.00 | 0.00 | 0.00 | 76 | 958.9 |
| 20260505101007 | 9 | 216 | 0.0 | 0.0 | 0.00 | 0.00 | 0.00 | 76 | 958.9 |
| 20260505100502 | 9 | 216 | 0.0 | 0.0 | 0.00 | 0.00 | 0.00 | 76 | 958.8 |
| 20260505095954 | 9 | 216 | 0.0 | 0.0 | 0.00 | 0.00 | 0.00 | 76 | 958.6 |
| 20260505095708 | 9 | 216 | 0.0 | 0.0 | 0.00 | 0.00 | 0.00 | 76 | 958.5 |
| 20260505094942 | 9 | 216 | 0.0 | 0.0 | 0.00 | 0.00 | 0.00 | 76 | 958.4 |
| 20260505094436 | 9 | 216 | 0.0 | 0.0 | 0.00 | 0.00 | 0.00 | 77 | 958.4 |
| 20260505093930 | 10 | 216 | 0.0 | 0.0 | 0.00 | 0.00 | 0.00 | 76 | 958.4 |
| 20260505093423 | 10 | 216 | 0.0 | 0.0 | 0.00 | 0.00 | 0.00 | 76 | 958.4 |
| 20260505093143 | 10 | 216 | 0.0 | 0.0 | 0.00 | 0.00 | 0.00 | 76 | 958.3 |
| 20260505092413 | 10 | 216 | 0.0 | 0.0 | 0.00 | 0.00 | 0.00 | 77 | 958.2 |
| 20260505091906 | 10 | 216 | 0.0 | 0.0 | 0.00 | 0.00 | 0.00 | 77 | 958.4 |
| 20260505091400 | 10 | 216 | 0.0 | 0.0 | 0.00 | 0.00 | 0.00 | 77 | 958.4 |
| 20260505090854 | 10 | 216 | 0.0 | 0.0 | 0.00 | 0.00 | 0.00 | 77 | 958.4 |
| 20260505090348 | 10 | 216 | 0.0 | 0.0 | 0.00 | 0.00 | 0.00 | 77 | 958.3 |
| 20260505085849 | 10 | 216 | 0.0 | 0.0 | 0.00 | 0.00 | 0.00 | 77 | 958.5 |
| 20260505085350 | 10 | 216 | 0.0 | 0.0 | 0.00 | 0.00 | 0.00 | 78 | 958.4 |
| 20260505084848 | 10 | 217 | 0.0 | 0.0 | 0.00 | 0.00 | 0.00 | 78 | 958.5 |
| 20260505084345 | 10 | 216 | 0.0 | 0.0 | 0.00 | 0.00 | 0.00 | 78 | 958.5 |
| 20260505084118 | 10 | 216 | 0.0 | 0.0 | 0.00 | 0.00 | 0.00 | 78 | 958.4 |
| 20260505083345 | 10 | 216 | 0.0 | 0.0 | 0.00 | 0.00 | 0.00 | 79 | 958.3 |
| 20260505082847 | 10 | 216 | 0.0 | 0.0 | 0.00 | 0.00 | 0.00 | 79 | 958.2 |
| 20260505082345 | 10 | 216 | 0.0 | 0.0 | 0.00 | 0.00 | 0.00 | 79 | 958.2 |
| 20260505081843 | 10 | 216 | 0.0 | 0.0 | 0.00 | 0.00 | 0.00 | 79 | 958.1 |
| 20260505081604 | 10 | 216 | 0.0 | 0.0 | 0.00 | 0.00 | 0.00 | 79 | 958.1 |
| 20260505080842 | 10 | 216 | 0.0 | 0.0 | 0.00 | 0.00 | 0.00 | 80 | 958.2 |
| 20260505080602 | 10 | 216 | 0.0 | 0.0 | 0.00 | 0.00 | 0.00 | 80 | 958.1 |
| 20260505075840 | 11 | 216 | 0.0 | 0.0 | 0.00 | 0.00 | 0.00 | 80 | 958.2 |
| 20260505075340 | 11 | 216 | 0.0 | 0.0 | 0.00 | 0.00 | 0.00 | 80 | 958.1 |
| 20260505074837 | 11 | 217 | 0.0 | 0.0 | 0.00 | 0.00 | 0.00 | 80 | 958.0 |
| 20260505074337 | 11 | 216 | 0.0 | 0.0 | 0.00 | 0.00 | 0.00 | 80 | 958.0 |
| 20260505074107 | 11 | 216 | 0.0 | 0.0 | 0.00 | 0.00 | 0.00 | 80 | 958.0 |
| 20260505073336 | 11 | 216 | 0.0 | 0.0 | 0.00 | 0.00 | 0.00 | 80 | 958.0 |
| 20260505072831 | 11 | 217 | 0.0 | 0.0 | 0.00 | 0.00 | 0.00 | 80 | 957.9 |
| 20260505072331 | 12 | 216 | 0.0 | 0.0 | 0.00 | 0.00 | 0.00 | 80 | 958.0 |
| 20260505071833 | 12 | 216 | 0.0 | 0.0 | 0.00 | 0.00 | 0.00 | 80 | 957.9 |
| 20260505071330 | 12 | 217 | 0.0 | 0.0 | 0.00 | 0.00 | 0.00 | 80 | 957.9 |
| 20260505070830 | 12 | 216 | 0.0 | 0.0 | 0.00 | 0.00 | 0.00 | 80 | 957.9 |
| 20260505070328 | 12 | 216 | 0.0 | 0.0 | 0.00 | 0.00 | 0.00 | 79 | 957.8 |
| 20260505070057 | 12 | 216 | 0.0 | 0.0 | 0.00 | 0.00 | 0.00 | 79 | 958.0 |
| 20260505065554 | 12 | 216 | 0.0 | 0.0 | 0.00 | 0.00 | 0.00 | 78 | 957.9 |
| 20260505064827 | 13 | 216 | 0.0 | 0.0 | 0.00 | 0.00 | 0.00 | 78 | 957.9 |
| 20260505064326 | 13 | 216 | 0.0 | 0.0 | 0.00 | 0.00 | 0.00 | 77 | 957.9 |
| 20260505063825 | 13 | 216 | 0.0 | 0.0 | 0.00 | 0.00 | 0.00 | 77 | 958.0 |
| 20260505063322 | 13 | 216 | 0.0 | 0.0 | 0.00 | 0.00 | 0.00 | 77 | 958.2 |
| 20260505062822 | 13 | 217 | 0.0 | 0.0 | 0.00 | 0.00 | 0.00 | 78 | 958.1 |
| 20260505062323 | 13 | 216 | 0.0 | 0.0 | 0.00 | 0.00 | 0.00 | 78 | 958.1 |
| 20260505061820 | 13 | 216 | 0.0 | 0.0 | 0.00 | 0.00 | 0.00 | 78 | 958.2 |
| 20260505061321 | 13 | 216 | 0.0 | 0.0 | 0.00 | 0.00 | 0.00 | 78 | 958.1 |
| 20260505060819 | 13 | 216 | 0.0 | 0.0 | 0.00 | 0.00 | 0.00 | 79 | 958.2 |
| 20260505060321 | 13 | 216 | 0.0 | 0.0 | 0.00 | 0.00 | 0.00 | 79 | 958.3 |
| 20260505055819 | 13 | 215 | 0.0 | 0.0 | 0.00 | 0.00 | 0.00 | 79 | 958.3 |
| 20260505055635 | 13 | 216 | 0.0 | 0.0 | 0.00 | 0.00 | 0.00 | 78 | 958.2 |
| 20260505055557 | 13 | 216 | 0.0 | 0.0 | 0.00 | 0.00 | 0.00 | 78 | 958.2 |
| 20260505054325 | 13 | 216 | 0.0 | 0.0 | 0.00 | 0.00 | 0.00 | 77 | 958.2 |
| 20260505053823 | 13 | 216 | 0.0 | 0.0 | 0.00 | 0.00 | 0.00 | 77 | 958.1 |
| 20260505053322 | 13 | 216 | 0.0 | 0.0 | 0.00 | 0.00 | 0.00 | 77 | 958.1 |
| 20260505052823 | 13 | 216 | 0.0 | 0.0 | 0.00 | 0.00 | 0.00 | 77 | 958.1 |
| 20260505052319 | 13 | 216 | 0.0 | 0.0 | 0.00 | 0.00 | 0.00 | 77 | 958.0 |
| 20260505051818 | 13 | 215 | 0.0 | 0.0 | 0.00 | 0.00 | 0.00 | 77 | 958.1 |
| 20260505051319 | 13 | 216 | 0.0 | 0.0 | 0.00 | 0.00 | 0.00 | 77 | 958.0 |
| 20260505050815 | 13 | 216 | 0.0 | 0.0 | 0.00 | 0.00 | 0.00 | 77 | 958.1 |
| 20260505050316 | 13 | 216 | 0.0 | 0.0 | 0.00 | 0.00 | 0.00 | 77 | 958.1 |
| 20260505041316 | 13 | 216 | 0.0 | 0.0 | 0.00 | 0.00 | 0.00 | 76 | 957.9 |
| 20260505040815 | 13 | 215 | 0.0 | 0.0 | 0.00 | 0.00 | 0.00 | 74 | 957.9 |
| 20260505040316 | 13 | 216 | 0.0 | 0.0 | 0.00 | 0.00 | 0.00 | 74 | 957.8 |
| 20260505035815 | 13 | 216 | 0.0 | 0.0 | 0.00 | 0.00 | 0.00 | 74 | 957.7 |
| 20260505035311 | 13 | 216 | 0.0 | 0.0 | 0.00 | 0.00 | 0.00 | 73 | 957.6 |
| 20260505034802 | 13 | 215 | 0.0 | 0.0 | 0.00 | 0.00 | 0.00 | 73 | 957.6 |
| 20260505034257 | 13 | 216 | 0.0 | 0.0 | 0.00 | 0.00 | 0.00 | 73 | 957.5 |
| 20260505033751 | 13 | 216 | 0.0 | 0.0 | 0.00 | 0.00 | 0.00 | 72 | 957.7 |
| 20260505033245 | 13 | 216 | 0.0 | 0.0 | 0.00 | 0.00 | 0.00 | 71 | 957.7 |
| 20260505032739 | 13 | 216 | 0.0 | 0.0 | 0.00 | 0.00 | 0.00 | 71 | 957.6 |
| 20260505032233 | 13 | 216 | 0.0 | 0.0 | 0.00 | 0.00 | 0.00 | 70 | 957.6 |
| 20260505031949 | 14 | 216 | 0.0 | 0.0 | 0.00 | 0.00 | 0.00 | 70 | 957.7 |
| 20260505031442 | 14 | 216 | 0.0 | 0.0 | 0.00 | 0.00 | 0.00 | 69 | 957.6 |
| 20260505031214 | 14 | 216 | 0.0 | 1.6 | 0.00 | 0.00 | 0.00 | 67 | 957.7 |
| 20260505030209 | 15 | 216 | 0.0 | 4.8 | 0.00 | 0.00 | 0.00 | 67 | 957.7 |
| 20260505025705 | 15 | 216 | 0.0 | 4.8 | 0.00 | 0.00 | 0.00 | 66 | 957.7 |
| 20260505025158 | 15 | 167 | 0.0 | 0.0 | 0.00 | 0.00 | 0.00 | 65 | 957.6 |
| 20260505024652 | 15 | 167 | 0.0 | 0.0 | 0.00 | 0.00 | 0.00 | 63 | 957.6 |
| 20260505024146 | 15 | 168 | 0.0 | 0.0 | 0.00 | 0.00 | 0.00 | 62 | 957.6 |
| 20260505023908 | 16 | 168 | 0.0 | 0.0 | 0.00 | 0.00 | 0.00 | 61 | 957.6 |
| 20260505023134 | 16 | 167 | 0.0 | 0.0 | 0.00 | 0.00 | 0.00 | 61 | 957.5 |
| 20260505022628 | 16 | 168 | 0.0 | 0.0 | 0.00 | 0.00 | 0.00 | 61 | 957.6 |
| 20260505022121 | 16 | 168 | 0.0 | 0.0 | 0.00 | 0.00 | 0.00 | 60 | 957.4 |
| 20260505021616 | 17 | 168 | 0.0 | 0.0 | 0.00 | 0.00 | 0.00 | 58 | 957.3 |
| 20260505021110 | 17 | 168 | 0.0 | 0.0 | 0.00 | 0.00 | 0.00 | 57 | 957.2 |
| 20260505020603 | 17 | 168 | 0.0 | 0.0 | 0.00 | 0.00 | 0.00 | 57 | 957.4 |
| 20260505020058 | 17 | 168 | 0.0 | 0.0 | 0.00 | 0.00 | 0.00 | 55 | 957.4 |
| 20260505015551 | 18 | 168 | 0.0 | 0.0 | 0.00 | 0.00 | 0.00 | 55 | 957.4 |
| 20260505015045 | 18 | 168 | 0.0 | 0.0 | 0.00 | 0.00 | 0.00 | 54 | 957.4 |
| 20260505014540 | 18 | 168 | 0.0 | 4.8 | 0.00 | 0.00 | 0.00 | 51 | 957.3 |
| 20260505014033 | 18 | 173 | 1.6 | 4.8 | 0.00 | 0.00 | 0.00 | 53 | 957.4 |
| 20260505013527 | 18 | 226 | 0.0 | 4.8 | 0.00 | 0.00 | 0.00 | 52 | 957.4 |
| 20260505013241 | 18 | 229 | 0.0 | 4.8 | 0.00 | 0.00 | 0.00 | 52 | 957.3 |
| 20260505012515 | 18 | 203 | 0.0 | 4.8 | 0.00 | 0.00 | 0.00 | 51 | 957.3 |
| 20260505012009 | 19 | 236 | 0.0 | 1.6 | 0.00 | 0.00 | 0.00 | 50 | 957.2 |
| 20260505011504 | 19 | 236 | 0.0 | 1.6 | 0.00 | 0.00 | 0.00 | 48 | 957.0 |
| 20260505010957 | 20 | 236 | 0.0 | 1.6 | 0.00 | 0.00 | 0.00 | 47 | 957.0 |
| 20260505010451 | 20 | 236 | 0.0 | 3.2 | 0.00 | 0.00 | 0.00 | 49 | 957.1 |
| 20260505005945 | 20 | 236 | 1.6 | 11.3 | 0.00 | 0.00 | 0.00 | 45 | 957.1 |
| 20260505005439 | 21 | 245 | 1.6 | 11.3 | 0.00 | 0.00 | 0.00 | 45 | 957.0 |
| 20260505004933 | 21 | 252 | 1.6 | 8.0 | 0.00 | 0.00 | 0.00 | 45 | 956.9 |
| 20260505004427 | 21 | 233 | 0.0 | 4.8 | 0.00 | 0.00 | 0.00 | 45 | 956.9 |
| 20260505003922 | 21 | 219 | 1.6 | 6.4 | 0.00 | 0.00 | 0.00 | 44 | 956.8 |
| 20260505003415 | 21 | 238 | 1.6 | 6.4 | 0.00 | 0.00 | 0.00 | 43 | 956.7 |
| 20260505003131 | 21 | 226 | 1.6 | 6.4 | 0.00 | 0.00 | 0.00 | 43 | 956.7 |
| 20260505002403 | 21 | 269 | 3.2 | 8.0 | 0.00 | 0.00 | 0.00 | 43 | 956.6 |
| 20260505001857 | 21 | 229 | 4.8 | 12.9 | 0.00 | 0.00 | 0.00 | 43 | 956.5 |
| 20260505001352 | 21 | 248 | 4.8 | 12.9 | 0.00 | 0.00 | 0.00 | 42 | 956.5 |
| 20260505000846 | 21 | 126 | 4.8 | 17.7 | 0.00 | 0.00 | 0.00 | 42 | 956.5 |
| 20260505000339 | 22 | 212 | 6.4 | 17.7 | 0.00 | 0.00 | 0.00 | 42 | 956.6 |
| 20260504235833 | 22 | 146 | 4.8 | 12.9 | 0.00 | 0.00 | 0.00 | 42 | 956.5 |
| 20260504235327 | 22 | 265 | 4.8 | 17.7 | 0.00 | 0.00 | 0.00 | 42 | 956.6 |
| 20260504234820 | 22 | 229 | 6.4 | 17.7 | 0.00 | 0.00 | 0.00 | 42 | 956.4 |
| 20260504234315 | 22 | 229 | 4.8 | 16.1 | 0.00 | 0.00 | 0.00 | 42 | 956.4 |
| 20260504233809 | 22 | 238 | 4.8 | 16.1 | 0.00 | 0.00 | 0.00 | 41 | 956.4 |
| 20260504233303 | 22 | 193 | 3.2 | 11.3 | 0.00 | 0.00 | 0.00 | 41 | 956.4 |
| 20260504232758 | 22 | 264 | 6.4 | 20.9 | 0.00 | 0.00 | 0.00 | 41 | 956.4 |
| 20260504232517 | 22 | 232 | 6.4 | 20.9 | 0.00 | 0.00 | 0.00 | 40 | 956.3 |
| 20260504231745 | 22 | 218 | 4.8 | 14.5 | 0.00 | 0.00 | 0.00 | 40 | 956.4 |
| 20260504231240 | 22 | 150 | 6.4 | 14.5 | 0.00 | 0.00 | 0.00 | 41 | 956.3 |
| 20260504230733 | 22 | 232 | 6.4 | 16.1 | 0.00 | 0.00 | 0.00 | 40 | 956.4 |
| 20260504230227 | 22 | 169 | 6.4 | 17.7 | 0.00 | 0.00 | 0.00 | 40 | 956.4 |
| 20260504225727 | 23 | 167 | 6.4 | 17.7 | 0.00 | 0.00 | 0.00 | 40 | 956.4 |
| 20260504225445 | 23 | 230 | 6.4 | 17.7 | 0.00 | 0.00 | 0.00 | 40 | 956.5 |
| 20260504224727 | 23 | 180 | 8.0 | 19.3 | 0.00 | 0.00 | 0.00 | 39 | 956.6 |
| 20260504224229 | 23 | 135 | 8.0 | 22.5 | 0.00 | 0.00 | 0.00 | 39 | 956.6 |
| 20260504223726 | 23 | 182 | 9.7 | 25.7 | 0.00 | 0.00 | 0.00 | 38 | 956.6 |